TimePDT,TemperatureF,Dew PointF,Humidity,Sea Level PressureIn,VisibilityMPH,Wind Direction,Wind SpeedMPH,Gust SpeedMPH,PrecipitationIn,Events,Conditions,WindDirDegrees,DateUTC
12:53 AM,62.1,51.1,67,29.87,9.0,Calm,Calm,-,N/A,,Clear,0,2012-10-03 07:53:00
1:53 AM,61.0,54.0,78,29.88,8.0,West,3.5,-,N/A,,Clear,270,2012-10-03 08:53:00
2:53 AM,59.0,52.0,78,29.88,8.0,Calm,Calm,-,N/A,,Clear,0,2012-10-03 09:53:00
3:53 AM,57.9,50.0,75,29.88,9.0,Calm,Calm,-,N/A,,Clear,0,2012-10-03 10:53:00
4:53 AM,55.9,48.9,77,29.88,8.0,Calm,Calm,-,N/A,,Clear,0,2012-10-03 11:53:00
5:53 AM,57.0,50.0,77,29.89,8.0,Calm,Calm,-,N/A,,Clear,0,2012-10-03 12:53:00
6:53 AM,55.9,50.0,80,29.90,8.0,Calm,Calm,-,N/A,,Clear,0,2012-10-03 13:53:00
7:53 AM,59.0,51.1,75,29.92,7.0,Calm,Calm,-,N/A,,Clear,0,2012-10-03 14:53:00
8:53 AM,62.1,53.1,72,29.93,6.0,Calm,Calm,-,N/A,,Haze,0,2012-10-03 15:53:00
9:53 AM,66.9,55.0,66,29.94,6.0,Calm,Calm,-,N/A,,Haze,0,2012-10-03 16:53:00
10:53 AM,75.0,52.0,44,29.95,8.0,WNW,5.8,-,N/A,,Clear,290,2012-10-03 17:53:00
11:53 AM,73.0,55.0,53,29.95,9.0,West,9.2,-,N/A,,Clear,280,2012-10-03 18:53:00
12:53 PM,70.0,57.0,63,29.94,8.0,NW,18.4,23.0,N/A,,Clear,310,2012-10-03 19:53:00
1:53 PM,68.0,57.0,68,29.95,8.0,NW,20.7,26.5,N/A,,Clear,320,2012-10-03 20:53:00
2:53 PM,66.0,57.0,73,29.96,8.0,NNW,19.6,-,N/A,,Clear,330,2012-10-03 21:53:00
3:53 PM,66.0,57.0,73,29.95,7.0,NW,20.7,-,N/A,,Clear,320,2012-10-03 22:53:00
4:53 PM,63.0,57.0,81,29.95,7.0,WNW,18.4,21.9,N/A,,Clear,300,2012-10-03 23:53:00
5:11 PM,62.6,57.2,82,29.93,7.0,NW,17.3,25.3,N/A,,Scattered Clouds,310,2012-10-04 00:11:00
5:24 PM,60.8,55.4,82,29.93,7.0,NW,17.3,25.3,N/A,,Mostly Cloudy,310,2012-10-04 00:24:00
5:53 PM,61.0,55.9,83,29.96,7.0,NW,18.4,-,N/A,,Overcast,310,2012-10-04 00:53:00
6:53 PM,60.1,55.9,86,29.99,6.0,NW,15.0,-,N/A,,Overcast,320,2012-10-04 01:53:00
7:53 PM,60.1,55.9,86,30.00,7.0,NW,13.8,-,N/A,,Overcast,310,2012-10-04 02:53:00
8:53 PM,60.1,55.9,86,30.02,7.0,NNW,11.5,-,N/A,,Overcast,330,2012-10-04 03:53:00
9:34 PM,60.8,55.4,82,30.01,8.0,NW,11.5,-,N/A,,Overcast,320,2012-10-04 04:34:00
9:53 PM,60.1,55.9,86,30.04,8.0,NW,10.4,-,N/A,,Overcast,320,2012-10-04 04:53:00
10:53 PM,60.1,55.9,86,30.05,8.0,NW,8.1,-,N/A,,Overcast,320,2012-10-04 05:53:00
11:53 PM,59.0,55.0,87,30.06,8.0,NW,8.1,-,N/A,,Overcast,320,2012-10-04 06:53:00